Location: ???? ?????
(30.0052°N, 31.2891°E)
Time: 03:41:30
(UTC+00:00)

CZ-4B R/B - Visible Passes

Search period start: 07 October 2022 00:00
Search period end: 17 October 2022 00:00
Orbit: 702 x 801 km, 99.0° (Epoch: 06 October)

Date Brightness Start Highest point End Pass type
(mag) Time Alt. Az. Time Alt. Az. Time Alt. Az.
07 Oct 5.4 02:13:52 10° NE 02:18:31 31° E 02:23:07 10° SSE visible
08 Oct 6.7 01:36:15 10° ENE 01:37:42 11° E 01:39:09 10° ESE visible
08 Oct 3.6 03:11:25 10° N 03:16:39 64° WNW 03:21:48 10° SSW visible
09 Oct 4.6 02:31:04 10° NNE 02:36:09 47° E 02:41:09 10° S visible
10 Oct 6.3 01:51:57 10° NE 01:55:25 18° E 01:58:49 10° SE visible
11 Oct 3.9 02:48:27 10° NNE 02:53:44 72° ESE 02:58:55 10° S visible
12 Oct 5.7 02:08:42 10° NE 02:13:05 26° E 02:17:24 10° SSE visible
13 Oct 3.5 03:06:01 10° N 03:11:17 76° WNW 03:16:27 10° SSW visible
14 Oct 5.0 02:25:48 10° NNE 02:30:43 40° E 02:35:33 10° SSE visible
15 Oct 6.5 01:47:06 10° ENE 01:49:57 15° E 01:52:45 10° SE visible
15 Oct 3.8 03:23:43 10° N 03:28:47 50° WNW 03:33:45 10° SSW visible
16 Oct 4.1 02:43:07 10° NNE 02:48:19 61° ESE 02:53:24 10° S visible
